Tracy, MN

11:53 PM CST on February 09, 2016 (GMT -0600)
Tracy

Weather History for KTKC - October, 2012

Change the Weather History Date:

Thursday, October 18, 2012

  Actual Average (KMML) Record (KMML)
Temperature  
Mean Temperature 42 °F -  
Max Temperature 46 °F 56 °F 84 °F (1961)
Min Temperature 38 °F 35 °F 14 °F (1976)
Degree Days  
Heating Degree Days 24    
Moisture  
Dew Point 39 °F    
Average Humidity 90    
Maximum Humidity 95    
Minimum Humidity 82    
Precipitation  
Precipitation 0.24 in - - ()
Sea Level Pressure  
Sea Level Pressure 29.31 in    
Wind  
Wind Speed 16 mph (NW)    
Max Wind Speed 29 mph    
Max Gust Speed 39 mph    
Visibility 6 miles    
Events Rain    
Averages and records for this station are not official NWS values.
T = Trace of Precipitation, MM = Missing Value Source: NWS Daily Summary

Daily Weather History Graph

Daily Weather History Graph

Search for Another Location

Airport or City:

Trip Planner

Search our weather history database for the weather conditions in past years. The results will help you decide how hot, cold, wet, or windy it might be!

Date:

Astronomy

Oct. 18, 2012 Rise Set
Actual Time 7:41 AM CDT 6:32 PM CDT
Civil Twilight 7:12 AM CDT 7:01 PM CDT
Nautical Twilight 6:38 AM CDT 7:35 PM CDT
Astronomical Twilight 6:05 AM CDT 8:08 PM CDT
Moon 11:32 AM CDT (10/18) 8:59 PM CDT (10/18)
Length of Visible Light 11h 49m
Length of Day
10h 50m
Waxing Crescent, 14% of the Moon is Illuminated
Oct 18
Waxing Crescent
Oct 21
First Quarter
Oct 29
Full
Nov 6
Last Quarter
Nov 13
New

Hourly Weather History & Observations

Time (CDT) Temp. Windchill Dew Point Humidity Pressure Visibility Wind Dir Wind Speed Gust Speed Precip Events Conditions
12:14 AM 41.5 °F 35.0 °F 37.4 °F 85% 29.34 in 10.0 mi WNW 11.5 mph 19.6 mph N/A   Drizzle
12:34 AM 41.5 °F 34.6 °F 37.4 °F 85% 29.34 in 10.0 mi WNW 12.7 mph 21.9 mph N/A   Drizzle
12:54 AM 41.5 °F 34.6 °F 37.4 °F 85% 29.33 in 10.0 mi WNW 12.7 mph 19.6 mph N/A Rain Rain
1:14 AM 41.5 °F 35.0 °F 37.4 °F 85% 29.33 in 10.0 mi West 11.5 mph 21.9 mph N/A   Drizzle
1:34 AM 41.5 °F 34.2 °F 37.4 °F 85% 29.33 in 10.0 mi WNW 13.8 mph 21.9 mph N/A   Light Drizzle
1:54 AM 41.9 °F 34.3 °F 36.9 °F 82% 29.32 in 10.0 mi WNW 15.0 mph 23.0 mph N/A   Overcast
2:14 AM 41.7 °F 35.2 °F 36.5 °F 82% 29.31 in 10.0 mi WNW 11.5 mph 26.5 mph N/A   Overcast
2:34 AM 41.0 °F 33.9 °F 36.5 °F 84% 29.31 in 10.0 mi WNW 12.7 mph 23.0 mph N/A   Light Drizzle
2:54 AM 41.0 °F 32.8 °F 36.1 °F 83% 29.30 in 10.0 mi WNW 16.1 mph 24.2 mph N/A   Overcast
3:14 AM 40.6 °F 31.7 °F 35.8 °F 83% 29.30 in 10.0 mi WNW 18.4 mph 26.5 mph N/A   Drizzle
3:34 AM 39.7 °F 30.9 °F 35.4 °F 85% 29.29 in 10.0 mi WNW 17.3 mph 26.5 mph N/A   Drizzle
3:54 AM 39.6 °F 31.7 °F 35.6 °F 86% 29.29 in 10.0 mi West 13.8 mph 20.7 mph N/A   Light Drizzle
4:14 AM 39.2 °F 31.2 °F 35.4 °F 86% 29.28 in 10.0 mi WNW 13.8 mph 20.7 mph N/A   Drizzle
4:34 AM 38.8 °F 30.4 °F 35.4 °F 88% 29.28 in 5.0 mi West 15.0 mph 24.2 mph N/A Rain Light Rain
4:54 AM 38.7 °F 30.9 °F 35.1 °F 87% 29.27 in 10.0 mi WNW 12.7 mph 23.0 mph N/A   Drizzle
5:14 AM 38.5 °F 30.3 °F 35.2 °F 88% 29.27 in 10.0 mi WNW 13.8 mph 23.0 mph N/A   Drizzle
5:34 AM 38.7 °F 30.5 °F 35.1 °F 87% 29.26 in 10.0 mi West 13.8 mph 20.7 mph N/A Rain Light Rain
5:54 AM 38.7 °F 30.9 °F 35.2 °F 87% 29.25 in 10.0 mi WNW 12.7 mph 21.9 mph N/A Rain Light Rain
6:34 AM 39.2 °F 31.2 °F 35.6 °F 87% 29.24 in 7.0 mi WNW 13.8 mph 23.0 mph 0.01 in Rain Rain
6:54 AM 39.6 °F 31.3 °F 36.5 °F 89% 29.24 in 5.0 mi WNW 15.0 mph 23.0 mph 0.01 in   Light Drizzle
7:14 AM 39.7 °F 30.9 °F 36.9 °F 89% 29.23 in 5.0 mi WNW 17.3 mph 23.0 mph N/A Rain Rain
7:34 AM 39.7 °F 31.2 °F 36.9 °F 89% 29.23 in 5.0 mi WNW 16.1 mph 25.3 mph N/A   Drizzle
7:54 AM 40.1 °F 31.6 °F 37.4 °F 90% 29.23 in 4.0 mi WNW 16.1 mph 20.7 mph N/A Rain Light Rain
8:13 AM 40.1 °F 32.4 °F 37.4 °F 90% 29.22 in 3.0 mi WNW 13.8 mph 21.9 mph N/A Rain Light Rain
8:34 AM 40.1 °F 31.6 °F 37.4 °F 90% 29.22 in 5.0 mi WNW 16.1 mph 23.0 mph N/A Rain Light Rain
8:54 AM 40.3 °F 33.0 °F 37.4 °F 89% 29.22 in 7.0 mi WNW 12.7 mph 21.9 mph N/A Rain Rain
9:14 AM 40.3 °F 31.6 °F 37.4 °F 89% 29.22 in 7.0 mi WNW 17.3 mph 24.2 mph 0.01 in Rain Rain
9:34 AM 40.5 °F 32.5 °F 37.4 °F 89% 29.22 in 7.0 mi WNW 15.0 mph 24.2 mph 0.01 in Rain Light Rain
9:54 AM 41.0 °F 32.8 °F 37.6 °F 88% 29.22 in 10.0 mi WNW 16.1 mph 24.2 mph 0.02 in Rain Light Rain
10:14 AM 41.2 °F 32.7 °F 37.8 °F 88% 29.22 in 7.0 mi WNW 17.3 mph 25.3 mph N/A Rain Light Rain
10:34 AM 41.5 °F 32.9 °F 38.7 °F 89% 29.22 in 5.0 mi NW 18.4 mph 27.6 mph N/A   Drizzle
10:54 AM 41.9 °F 33.1 °F 39.4 °F 91% 29.21 in 3.0 mi NW 19.6 mph 25.3 mph N/A Rain Light Rain
11:14 AM 42.8 °F 33.8 °F 40.6 °F 92% 29.21 in 4.0 mi NW 21.9 mph - N/A   Light Drizzle
11:34 AM 43.0 °F 34.2 °F 41.0 °F 93% 29.21 in 2.5 mi NW 20.7 mph - N/A Rain Light Rain
11:54 AM 43.3 °F 35.2 °F 41.2 °F 92% 29.21 in 4.0 mi NW 18.4 mph 24.2 mph N/A   Overcast
12:14 PM 43.3 °F 35.8 °F 41.4 °F 93% 29.22 in 4.0 mi NNW 16.1 mph 21.9 mph N/A   Overcast
12:34 PM 43.7 °F 36.6 °F 41.9 °F 93% 29.23 in 4.0 mi NNW 15.0 mph 20.7 mph N/A Rain Light Rain
12:53 PM 43.7 °F 36.9 °F 42.1 °F 94% 29.24 in 2.5 mi NNW 13.8 mph - 0.01 in Rain Rain
1:14 PM 43.9 °F 37.5 °F 42.3 °F 94% 29.25 in 7.0 mi NNW 12.7 mph 20.7 mph 0.01 in Rain Rain
1:34 PM 44.1 °F 37.7 °F 42.4 °F 94% 29.26 in 7.0 mi NNW 12.7 mph - 0.04 in Rain Light Rain
1:53 PM 44.2 °F 38.4 °F 42.8 °F 95% 29.27 in 7.0 mi NNW 11.5 mph - 0.05 in Rain Rain
2:14 PM 44.6 °F 38.4 °F 43.0 °F 94% 29.28 in 10.0 mi North 12.7 mph 18.4 mph 0.02 in Rain Rain
2:34 PM 45.1 °F 38.8 °F 43.5 °F 94% 29.29 in 10.0 mi NNW 13.8 mph 17.3 mph 0.04 in Rain Light Rain
2:54 PM 45.5 °F 39.2 °F 43.9 °F 94% 29.30 in 10.0 mi North 13.8 mph - 0.05 in Rain Rain
3:14 PM 45.9 °F 38.3 °F 43.9 °F 93% 29.32 in 7.0 mi North 19.6 mph 25.3 mph 0.01 in Rain Rain
3:34 PM 45.5 °F 39.6 °F 43.0 °F 91% 29.33 in 10.0 mi North 12.7 mph - 0.01 in Rain Light Rain
3:54 PM 45.0 °F 37.6 °F 43.0 °F 93% 29.35 in 7.0 mi NNW 17.3 mph 23.0 mph 0.02 in Rain Rain
4:14 PM 45.0 °F 37.6 °F 43.0 °F 93% 29.36 in 7.0 mi NNW 17.3 mph 25.3 mph 0.01 in Rain Rain
4:34 PM 44.8 °F 38.0 °F 43.0 °F 93% 29.37 in 4.0 mi NNW 15.0 mph 21.9 mph 0.02 in Rain Rain
4:54 PM 44.8 °F 38.3 °F 43.2 °F 94% 29.37 in 4.0 mi NNW 13.8 mph 21.9 mph 0.02 in Rain Light Rain
5:14 PM 45.1 °F 38.4 °F 43.3 °F 93% 29.38 in 5.0 mi NNW 15.0 mph 18.4 mph N/A Rain Light Rain
5:33 PM 45.5 °F 37.8 °F 43.7 °F 93% 29.38 in 4.0 mi NW 19.6 mph 28.8 mph N/A Rain Light Rain
5:54 PM 45.5 °F 36.3 °F 42.8 °F 90% 29.38 in 4.0 mi NW 27.6 mph 36.8 mph 0.01 in Rain Light Rain
6:14 PM 44.8 °F 35.7 °F 42.4 °F 91% 29.38 in 3.0 mi NW 25.3 mph 33.4 mph N/A Rain Rain
6:33 PM 44.2 °F 35.4 °F 42.3 °F 93% 29.39 in 3.0 mi NW 23.0 mph 32.2 mph N/A Rain Light Rain
6:54 PM 43.7 °F 34.7 °F 41.5 °F 92% 29.39 in 3.0 mi NW 23.0 mph 34.5 mph N/A Rain Light Rain
7:14 PM 43.2 °F 33.6 °F 41.2 °F 93% 29.40 in 3.0 mi NW 25.3 mph 35.7 mph N/A Rain Light Rain
7:34 PM 42.8 °F 32.9 °F 40.8 °F 93% 29.40 in 3.0 mi NW 26.5 mph 38.0 mph N/A   Drizzle
7:54 PM 42.8 °F 33.1 °F 40.3 °F 91% 29.40 in 4.0 mi NW 25.3 mph 38.0 mph N/A Rain Light Rain
8:14 PM 42.4 °F 32.0 °F 40.1 °F 91% 29.41 in 7.0 mi NW 28.8 mph 39.1 mph N/A Rain Light Rain
8:34 PM 42.3 °F 33.1 °F 40.1 °F 92% 29.41 in 7.0 mi NNW 21.9 mph 34.5 mph N/A Rain Rain
8:54 PM 42.1 °F 31.7 °F 39.7 °F 91% 29.42 in 5.0 mi NNW 27.6 mph 39.1 mph 0.01 in Rain Rain
9:14 PM 41.9 °F 31.7 °F 39.7 °F 92% 29.42 in 7.0 mi NW 26.5 mph 34.5 mph 0.01 in Rain Rain
9:34 PM 41.9 °F 31.3 °F 39.6 °F 91% 29.43 in 5.0 mi NNW 28.8 mph 32.2 mph 0.02 in Rain Rain
9:54 PM 41.9 °F 31.5 °F 39.7 °F 92% 29.43 in 7.0 mi NNW 27.6 mph 35.7 mph 0.03 in Rain Light Rain
10:14 PM 41.7 °F 32.1 °F 39.6 °F 92% 29.43 in 5.0 mi NNW 23.0 mph 36.8 mph N/A Rain Rain
10:34 PM 41.5 °F 31.9 °F 39.6 °F 93% 29.44 in 4.0 mi NNW 23.0 mph 36.8 mph 0.01 in Rain Rain
10:54 PM 41.4 °F 31.2 °F 39.6 °F 93% 29.44 in 4.0 mi NNW 25.3 mph 38.0 mph 0.01 in Rain Rain
11:14 PM 41.2 °F 31.1 °F 39.4 °F 93% 29.45 in 4.0 mi NNW 24.2 mph 34.5 mph N/A Rain Rain
11:34 PM 41.2 °F 31.4 °F 39.2 °F 93% 29.45 in 5.0 mi NNW 23.0 mph 34.5 mph N/A Rain Rain
11:54 PM 41.0 °F 30.5 °F 39.2 °F 93% 29.45 in 4.0 mi NNW 26.5 mph 33.4 mph N/A Rain Rain